Terminal Aerodrome Forecast
Issued by NWS

Home | Current Version | Previous Version | Text Only | Print | Product List | Glossary On
Versions: 1 2 3 4 5 6 7 8 9 10 11 12 13 14 15 16 17 18 19 20 21 22 23 24 25 26 27 28 29
000
FTUS46 KSEW 250521
TAFSEA
TAF
KSEA 250521Z 2506/2612 18008KT P6SM BKN040
     FM251000 16005KT P6SM SCT100 SCT250
     FM251600 12006KT P6SM BKN120 OVC200
     FM251900 04006KT P6SM OVC100
     FM260100 04006KT P6SM -RA OVC050=

USA.gov is the U.S. government's official web portal to all federal, state and local government web resources and services.